{"data":{"norad_id":67271,"epoch":"2026-05-25T04:55:01.429824Z","epoch_age_seconds":64095,"freshness":"FRESH","line1":"1 67271U 25313Z   26145.20487766  .00004163  00000+0  18809-3 0  9997","line2":"2 67271  97.3942 220.0514 0016623  84.0538 276.2592 15.21379811 22442","mean_motion":15.21379811,"eccentricity":0.0016623,"inclination_deg":97.3942,"raan_deg":220.0514,"arg_perigee_deg":84.0538,"mean_anomaly_deg":276.2592,"bstar":0.00018809,"rev_number":2244,"period_min":94.650920801525,"perigee_km":490.24139932806,"apogee_km":513.11403133064,"semimajor_km":6879.8147153294,"source":"CELESTRAK","updated_at":"2026-05-25T13:38:06.850390Z"}}